Time,TemperatureF,DewpointF,PressureIn,WindDirection,WindDirectionDegrees,WindSpeedMPH,WindSpeedGustMPH,Humidity,HourlyPrecipIn,Conditions,Clouds,dailyrainin,SoftwareType,DateUTC
2013-05-16 00:01:00,45.9,45.0,29.02,West,270,1.0,3.0,97,0.00,,,0.00,Rainwise IP-100,2013-05-16 04:01:00,
2013-05-16 00:06:00,44.9,44.0,29.01,West,270,0.0,3.0,96,0.00,,,0.00,Rainwise IP-100,2013-05-16 04:06:00,
2013-05-16 00:11:00,44.6,44.0,29.01,West,270,0.0,2.0,97,0.00,,,0.00,Rainwise IP-100,2013-05-16 04:11:00,
2013-05-16 00:16:00,44.6,44.0,29.01,West,270,0.0,0.0,97,0.00,,,0.00,Rainwise IP-100,2013-05-16 04:16:00,
2013-05-16 00:21:00,44.7,44.0,29.01,West,270,0.0,0.0,97,0.00,,,0.00,Rainwise IP-100,2013-05-16 04:21:00,
2013-05-16 00:26:00,44.7,44.0,29.01,West,270,0.0,0.0,98,0.00,,,0.00,Rainwise IP-100,2013-05-16 04:26:00,
2013-05-16 00:31:00,44.6,44.0,29.01,West,270,0.0,2.0,98,0.00,,,0.00,Rainwise IP-100,2013-05-16 04:31:00,
2013-05-16 00:36:00,44.6,44.0,29.01,West,270,0.0,3.0,98,0.00,,,0.00,Rainwise IP-100,2013-05-16 04:36:00,
2013-05-16 00:42:00,44.7,44.0,29.01,West,270,0.0,1.0,98,0.00,,,0.00,Rainwise IP-100,2013-05-16 04:42:00,
2013-05-16 00:47:00,44.4,43.0,29.01,West,270,0.0,0.0,98,0.00,,,0.00,Rainwise IP-100,2013-05-16 04:47:00,
2013-05-16 00:52:00,44.2,43.0,29.01,West,270,0.0,0.0,98,0.00,,,0.00,Rainwise IP-100,2013-05-16 04:52:00,
2013-05-16 00:57:00,43.9,43.0,29.01,West,270,0.0,2.0,98,0.00,,,0.00,Rainwise IP-100,2013-05-16 04:57:00,
2013-05-16 01:02:00,43.5,43.0,29.01,West,270,0.0,1.0,98,0.00,,,0.00,Rainwise IP-100,2013-05-16 05:02:00,
2013-05-16 01:07:00,43.1,42.0,29.00,West,270,0.0,0.0,98,0.00,,,0.00,Rainwise IP-100,2013-05-16 05:07:00,
2013-05-16 01:12:00,42.9,42.0,29.00,West,270,0.0,3.0,98,0.00,,,0.00,Rainwise IP-100,2013-05-16 05:12:00,
2013-05-16 01:18:00,42.9,42.0,29.01,West,270,1.0,0.0,98,0.00,,,0.00,Rainwise IP-100,2013-05-16 05:18:00,
2013-05-16 01:23:00,43.2,43.0,29.00,West,270,0.0,2.0,99,0.00,,,0.00,Rainwise IP-100,2013-05-16 05:23:00,
2013-05-16 01:28:00,43.1,42.0,29.00,West,270,0.0,0.0,98,0.00,,,0.00,Rainwise IP-100,2013-05-16 05:28:00,
2013-05-16 01:33:00,42.9,43.0,29.00,West,270,0.0,0.0,99,0.00,,,0.00,Rainwise IP-100,2013-05-16 05:33:00,
2013-05-16 01:38:00,43.2,43.0,29.00,West,270,0.0,3.0,99,0.00,,,0.00,Rainwise IP-100,2013-05-16 05:38:00,
2013-05-16 01:43:00,43.8,44.0,29.00,West,270,0.0,3.0,99,0.00,,,0.00,Rainwise IP-100,2013-05-16 05:43:00,
2013-05-16 01:48:00,44.5,45.0,29.00,West,270,0.0,0.0,99,0.00,,,0.00,Rainwise IP-100,2013-05-16 05:48:00,
2013-05-16 01:53:00,45.4,45.0,29.00,West,270,0.0,4.0,100,0.00,,,0.00,Rainwise IP-100,2013-05-16 05:53:00,
2013-05-16 01:59:00,45.6,46.0,29.01,West,270,0.0,3.0,100,0.00,,,0.00,Rainwise IP-100,2013-05-16 05:59:00,
2013-05-16 02:04:00,45.7,46.0,29.00,West,270,0.0,0.0,100,0.00,,,0.00,Rainwise IP-100,2013-05-16 06:04:00,
2013-05-16 02:09:00,46.1,46.0,29.01,East,90,2.0,5.0,100,0.00,,,0.00,Rainwise IP-100,2013-05-16 06:09:00,
2013-05-16 02:14:00,46.6,47.0,29.01,SE,135,0.0,3.0,100,0.00,,,0.00,Rainwise IP-100,2013-05-16 06:14:00,
2013-05-16 02:19:00,46.8,47.0,29.01,SSW,202,0.0,0.0,100,0.00,,,0.00,Rainwise IP-100,2013-05-16 06:19:00,
2013-05-16 02:24:00,46.7,47.0,29.01,SSW,202,0.0,0.0,100,0.00,,,0.00,Rainwise IP-100,2013-05-16 06:24:00,
2013-05-16 02:29:00,46.6,47.0,29.01,West,270,0.0,4.0,100,0.00,,,0.00,Rainwise IP-100,2013-05-16 06:29:00,
2013-05-16 02:35:00,46.3,46.0,29.01,SW,225,5.0,7.0,100,0.00,,,0.00,Rainwise IP-100,2013-05-16 06:35:00,
2013-05-16 02:40:00,45.9,46.0,29.01,SW,225,4.0,6.0,100,0.00,,,0.00,Rainwise IP-100,2013-05-16 06:40:00,
2013-05-16 02:45:00,45.6,46.0,29.00,SW,225,0.0,5.0,100,0.00,,,0.00,Rainwise IP-100,2013-05-16 06:45:00,
2013-05-16 02:50:00,44.8,44.0,29.00,SW,225,0.0,2.0,98,0.00,,,0.00,Rainwise IP-100,2013-05-16 06:50:00,
2013-05-16 02:55:00,43.9,43.0,29.00,NW,315,0.0,5.0,98,0.00,,,0.00,Rainwise IP-100,2013-05-16 06:55:00,
2013-05-16 03:00:00,43.0,43.0,29.00,NW,315,0.0,3.0,99,0.00,,,0.00,Rainwise IP-100,2013-05-16 07:00:00,
2013-05-16 03:05:00,42.5,43.0,28.99,NW,315,0.0,0.0,99,0.00,,,0.00,Rainwise IP-100,2013-05-16 07:05:00,
2013-05-16 03:10:00,41.9,42.0,28.99,NW,315,0.0,4.0,100,0.00,,,0.00,Rainwise IP-100,2013-05-16 07:10:00,
2013-05-16 03:16:00,41.4,41.0,28.99,NW,315,0.0,3.0,99,0.00,,,0.00,Rainwise IP-100,2013-05-16 07:16:00,
2013-05-16 03:21:00,41.0,41.0,28.99,WSW,247,1.0,5.0,100,0.00,,,0.00,Rainwise IP-100,2013-05-16 07:21:00,
2013-05-16 03:26:00,41.6,42.0,28.99,SW,225,0.0,4.0,100,0.00,,,0.00,Rainwise IP-100,2013-05-16 07:26:00,
2013-05-16 03:31:00,41.4,41.0,28.99,SSE,157,3.0,3.0,99,0.00,,,0.00,Rainwise IP-100,2013-05-16 07:31:00,
2013-05-16 03:36:00,41.9,42.0,28.99,NW,315,4.0,6.0,100,0.00,,,0.00,Rainwise IP-100,2013-05-16 07:36:00,
2013-05-16 03:41:00,42.0,42.0,28.99,ENE,67,0.0,6.0,100,0.00,,,0.00,Rainwise IP-100,2013-05-16 07:41:00,
2013-05-16 03:46:00,42.2,42.0,28.99,ENE,67,0.0,3.0,100,0.00,,,0.00,Rainwise IP-100,2013-05-16 07:46:00,
2013-05-16 03:51:00,41.8,42.0,28.99,NNE,22,0.0,1.0,100,0.00,,,0.00,Rainwise IP-100,2013-05-16 07:51:00,
2013-05-16 03:57:00,41.1,41.0,28.98,NW,315,2.0,4.0,100,0.00,,,0.00,Rainwise IP-100,2013-05-16 07:57:00,
2013-05-16 04:02:00,40.8,41.0,28.98,NW,315,1.0,4.0,100,0.00,,,0.00,Rainwise IP-100,2013-05-16 08:02:00,
2013-05-16 04:07:00,40.5,41.0,28.99,NW,315,0.0,1.0,100,0.00,,,0.00,Rainwise IP-100,2013-05-16 08:07:00,
2013-05-16 04:12:00,40.8,41.0,28.99,SW,225,0.0,5.0,100,0.00,,,0.00,Rainwise IP-100,2013-05-16 08:12:00,
2013-05-16 04:17:00,40.7,41.0,28.99,WNW,292,0.0,5.0,100,0.00,,,0.00,Rainwise IP-100,2013-05-16 08:17:00,
2013-05-16 04:22:00,40.4,40.0,28.98,WNW,292,0.0,4.0,100,0.00,,,0.00,Rainwise IP-100,2013-05-16 08:22:00,
2013-05-16 04:27:00,39.6,40.0,28.98,WNW,292,0.0,4.0,100,0.00,,,0.00,Rainwise IP-100,2013-05-16 08:27:00,
2013-05-16 04:32:00,39.2,39.0,28.98,WNW,292,0.0,0.0,100,0.00,,,0.00,Rainwise IP-100,2013-05-16 08:32:00,
2013-05-16 04:38:00,39.1,39.0,28.98,ENE,67,1.0,4.0,100,0.00,,,0.00,Rainwise IP-100,2013-05-16 08:38:00,
2013-05-16 04:43:00,39.1,39.0,28.98,NW,315,0.0,4.0,100,0.00,,,0.00,Rainwise IP-100,2013-05-16 08:43:00,
2013-05-16 04:48:00,38.7,39.0,28.98,WSW,247,1.0,3.0,100,0.00,,,0.00,Rainwise IP-100,2013-05-16 08:48:00,
2013-05-16 04:53:00,38.5,39.0,28.98,WSW,247,0.0,1.0,100,0.00,,,0.00,Rainwise IP-100,2013-05-16 08:53:00,
2013-05-16 04:58:00,38.3,38.0,28.98,WSW,247,1.0,2.0,100,0.00,,,0.00,Rainwise IP-100,2013-05-16 08:58:00,
2013-05-16 05:03:00,38.3,38.0,28.98,WSW,247,0.0,3.0,100,0.00,,,0.00,Rainwise IP-100,2013-05-16 09:03:00,
2013-05-16 05:08:00,38.4,38.0,28.97,WSW,247,0.0,5.0,100,0.00,,,0.00,Rainwise IP-100,2013-05-16 09:08:00,
2013-05-16 05:14:00,38.5,39.0,28.98,WNW,292,0.0,2.0,100,0.00,,,0.00,Rainwise IP-100,2013-05-16 09:14:00,
2013-05-16 05:19:00,38.2,38.0,28.98,WNW,292,1.0,4.0,100,0.00,,,0.00,Rainwise IP-100,2013-05-16 09:19:00,
2013-05-16 05:24:00,38.1,38.0,28.98,West,270,2.0,5.0,100,0.00,,,0.00,Rainwise IP-100,2013-05-16 09:24:00,
2013-05-16 05:29:00,38.6,39.0,28.98,SW,225,3.0,5.0,100,0.00,,,0.00,Rainwise IP-100,2013-05-16 09:29:00,
2013-05-16 05:34:00,39.6,40.0,28.98,NE,45,0.0,5.0,100,0.00,,,0.00,Rainwise IP-100,2013-05-16 09:34:00,
2013-05-16 05:39:00,39.4,39.0,28.98,NNW,337,0.0,3.0,100,0.00,,,0.00,Rainwise IP-100,2013-05-16 09:39:00,
2013-05-16 05:44:00,39.4,39.0,28.97,SW,225,0.0,3.0,100,0.00,,,0.00,Rainwise IP-100,2013-05-16 09:44:00,
2013-05-16 05:49:00,39.4,39.0,28.98,WSW,247,0.0,3.0,100,0.00,,,0.00,Rainwise IP-100,2013-05-16 09:49:00,
2013-05-16 05:55:00,39.8,40.0,28.98,West,270,0.0,3.0,100,0.00,,,0.00,Rainwise IP-100,2013-05-16 09:55:00,
2013-05-16 06:00:00,40.2,40.0,28.98,WSW,247,3.0,5.0,100,0.00,,,0.00,Rainwise IP-100,2013-05-16 10:00:00,
2013-05-16 06:05:00,41.4,41.0,28.99,SSE,157,0.0,3.0,100,0.00,,,0.00,Rainwise IP-100,2013-05-16 10:05:00,
2013-05-16 06:10:00,41.9,42.0,28.99,NNE,22,0.0,5.0,100,0.00,,,0.00,Rainwise IP-100,2013-05-16 10:10:00,
2013-05-16 06:15:00,42.9,43.0,28.99,WNW,292,3.0,3.0,100,0.00,,,0.00,Rainwise IP-100,2013-05-16 10:15:00,
2013-05-16 06:20:00,43.3,43.0,29.00,South,180,0.0,5.0,100,0.00,,,0.00,Rainwise IP-100,2013-05-16 10:20:00,
2013-05-16 06:25:00,43.7,44.0,29.00,South,180,0.0,5.0,100,0.00,,,0.00,Rainwise IP-100,2013-05-16 10:25:00,
2013-05-16 06:31:00,44.5,45.0,29.01,East,90,0.0,3.0,100,0.00,,,0.00,Rainwise IP-100,2013-05-16 10:31:00,
2013-05-16 06:36:00,44.9,45.0,29.01,SSE,157,5.0,5.0,100,0.00,,,0.00,Rainwise IP-100,2013-05-16 10:36:00,
2013-05-16 06:41:00,45.9,46.0,29.01,NNE,22,0.0,4.0,100,0.00,,,0.00,Rainwise IP-100,2013-05-16 10:41:00,
2013-05-16 06:46:00,46.7,47.0,29.01,NE,45,0.0,3.0,100,0.00,,,0.00,Rainwise IP-100,2013-05-16 10:46:00,
2013-05-16 06:51:00,46.8,47.0,29.02,East,90,2.0,5.0,100,0.00,,,0.00,Rainwise IP-100,2013-05-16 10:51:00,
2013-05-16 06:56:00,47.6,47.5,29.02,ENE,67,0.0,3.0,100,0.00,,,0.00,Rainwise IP-100,2013-05-16 10:56:00,
2013-05-16 07:01:00,48.5,49.0,29.03,NE,45,2.0,2.0,100,0.00,,,0.00,Rainwise IP-100,2013-05-16 11:01:00,
2013-05-16 07:06:00,48.9,49.0,29.03,East,90,0.0,4.0,100,0.00,,,0.00,Rainwise IP-100,2013-05-16 11:06:00,
2013-05-16 07:12:00,49.3,49.0,29.03,East,90,2.0,4.0,99,0.00,,,0.00,Rainwise IP-100,2013-05-16 11:12:00,
2013-05-16 07:17:00,49.7,50.0,29.04,ENE,67,3.0,5.0,100,0.00,,,0.00,Rainwise IP-100,2013-05-16 11:17:00,
2013-05-16 07:22:00,50.1,50.0,29.04,East,90,5.0,6.0,99,0.00,,,0.00,Rainwise IP-100,2013-05-16 11:22:00,
2013-05-16 07:27:00,50.4,50.0,29.04,East,90,3.0,5.0,98,0.00,,,0.00,Rainwise IP-100,2013-05-16 11:27:00,
2013-05-16 07:32:00,50.9,51.0,29.04,East,90,0.0,4.0,99,0.00,,,0.00,Rainwise IP-100,2013-05-16 11:32:00,
2013-05-16 07:37:00,51.9,51.0,29.04,ENE,67,3.0,4.0,98,0.00,,,0.00,Rainwise IP-100,2013-05-16 11:37:00,
2013-05-16 07:42:00,52.3,51.0,29.05,East,90,0.0,6.0,97,0.00,,,0.00,Rainwise IP-100,2013-05-16 11:42:00,
2013-05-16 07:48:00,52.9,52.0,29.05,NE,45,0.0,5.0,97,0.00,,,0.00,Rainwise IP-100,2013-05-16 11:48:00,
2013-05-16 07:53:00,53.8,53.5,29.05,East,90,0.0,5.0,98,0.00,,,0.00,Rainwise IP-100,2013-05-16 11:53:00,
2013-05-16 07:58:00,54.6,54.0,29.05,ESE,112,3.0,5.0,97,0.00,,,0.00,Rainwise IP-100,2013-05-16 11:58:00,
2013-05-16 08:03:00,55.3,54.0,29.06,East,90,2.0,3.0,96,0.00,,,0.00,Rainwise IP-100,2013-05-16 12:03:00,
2013-05-16 08:08:00,55.9,54.5,29.06,East,90,4.0,5.0,95,0.00,,,0.00,Rainwise IP-100,2013-05-16 12:08:00,
2013-05-16 08:13:00,56.2,54.0,29.06,East,90,2.0,6.0,94,0.00,,,0.00,Rainwise IP-100,2013-05-16 12:13:00,
2013-05-16 08:18:00,56.6,54.0,29.06,SE,135,3.0,6.0,92,0.00,,,0.00,Rainwise IP-100,2013-05-16 12:18:00,
2013-05-16 08:23:00,57.3,56.0,29.06,East,90,6.0,6.0,93,0.00,,,0.00,Rainwise IP-100,2013-05-16 12:23:00,
2013-05-16 08:29:00,57.8,56.0,29.07,ESE,112,5.0,6.0,91,0.00,,,0.00,Rainwise IP-100,2013-05-16 12:29:00,
2013-05-16 08:34:00,59.2,51.0,29.07,East,90,7.0,12.0,75,0.00,,,0.00,Rainwise IP-100,2013-05-16 12:34:00,
2013-05-16 08:39:00,60.9,46.0,29.07,WSW,247,9.0,10.0,57,0.00,,,0.00,Rainwise IP-100,2013-05-16 12:39:00,
2013-05-16 08:44:00,62.1,46.0,29.08,West,270,2.0,11.0,55,0.00,,,0.00,Rainwise IP-100,2013-05-16 12:44:00,
2013-05-16 08:49:00,62.9,45.0,29.09,West,270,7.0,15.0,52,0.06,,,0.01,Rainwise IP-100,2013-05-16 12:49:00,
2013-05-16 08:54:00,63.5,47.0,29.09,WSW,247,4.0,15.0,54,0.06,,,0.01,Rainwise IP-100,2013-05-16 12:54:00,
2013-05-16 08:59:00,64.1,44.0,29.09,WSW,247,5.0,12.0,49,0.00,,,0.01,Rainwise IP-100,2013-05-16 12:59:00,
2013-05-16 09:05:00,64.2,43.0,29.09,WNW,292,9.0,13.0,47,0.00,,,0.01,Rainwise IP-100,2013-05-16 13:05:00,
2013-05-16 09:10:00,64.7,43.0,29.09,West,270,5.0,15.0,46,0.00,,,0.01,Rainwise IP-100,2013-05-16 13:10:00,
2013-05-16 09:15:00,65.1,42.0,29.09,WNW,292,6.0,13.0,44,0.00,,,0.01,Rainwise IP-100,2013-05-16 13:15:00,
2013-05-16 09:20:00,65.4,40.0,29.09,WSW,247,10.0,15.0,40,0.00,,,0.01,Rainwise IP-100,2013-05-16 13:20:00,
2013-05-16 09:25:00,65.7,40.0,29.09,SW,225,11.0,16.0,40,0.00,,,0.01,Rainwise IP-100,2013-05-16 13:25:00,
2013-05-16 09:30:00,65.7,40.0,29.09,WSW,247,7.0,15.0,40,0.00,,,0.01,Rainwise IP-100,2013-05-16 13:30:00,
2013-05-16 09:35:00,66.0,39.0,29.09,SSW,202,6.0,16.0,38,0.00,,,0.01,Rainwise IP-100,2013-05-16 13:35:00,
2013-05-16 09:40:00,66.1,39.0,29.09,WSW,247,14.0,16.0,37,0.00,,,0.01,Rainwise IP-100,2013-05-16 13:40:00,
2013-05-16 09:46:00,66.4,38.0,29.09,SW,225,7.0,20.0,35,0.00,,,0.01,Rainwise IP-100,2013-05-16 13:46:00,
2013-05-16 09:51:00,66.6,39.0,29.10,WSW,247,16.0,18.0,37,0.00,,,0.01,Rainwise IP-100,2013-05-16 13:51:00,
2013-05-16 09:53:00,66.7,38.0,29.10,West,270,6.0,18.0,35,0.00,,,0.01,Rainwise IP-100,2013-05-16 13:53:00,
2013-05-16 09:58:00,67.3,37.0,29.10,WSW,247,4.0,14.0,33,0.00,,,0.01,Rainwise IP-100,2013-05-16 13:58:00,
2013-05-16 10:04:00,67.5,39.0,29.10,West,270,6.0,16.0,35,0.00,,,0.01,Rainwise IP-100,2013-05-16 14:04:00,
2013-05-16 10:09:00,67.9,38.0,29.11,NW,315,9.0,15.0,34,0.00,,,0.01,Rainwise IP-100,2013-05-16 14:09:00,
2013-05-16 10:14:00,68.3,39.0,29.11,WSW,247,9.0,15.0,34,0.00,,,0.01,Rainwise IP-100,2013-05-16 14:14:00,
2013-05-16 10:19:00,68.8,39.0,29.11,SW,225,9.0,12.0,34,0.00,,,0.01,Rainwise IP-100,2013-05-16 14:19:00,
2013-05-16 10:24:00,68.9,36.0,29.11,SW,225,6.0,11.0,30,0.00,,,0.01,Rainwise IP-100,2013-05-16 14:24:00,
2013-05-16 10:29:00,68.9,36.0,29.11,WSW,247,10.0,13.0,29,0.00,,,0.01,Rainwise IP-100,2013-05-16 14:29:00,
2013-05-16 10:34:00,69.3,37.0,29.11,WNW,292,3.0,15.0,31,0.00,,,0.01,Rainwise IP-100,2013-05-16 14:34:00,
2013-05-16 10:39:00,69.6,36.0,29.11,West,270,3.0,17.0,29,0.00,,,0.01,Rainwise IP-100,2013-05-16 14:39:00,
2013-05-16 10:45:00,69.8,36.0,29.11,West,270,9.0,16.0,29,0.00,,,0.01,Rainwise IP-100,2013-05-16 14:45:00,
2013-05-16 10:50:00,70.0,35.0,29.11,West,270,3.0,16.0,27,0.00,,,0.01,Rainwise IP-100,2013-05-16 14:50:00,
2013-05-16 10:55:00,70.3,39.0,29.11,WNW,292,10.0,26.0,32,0.00,,,0.01,Rainwise IP-100,2013-05-16 14:55:00,
2013-05-16 11:00:00,70.3,35.0,29.11,WSW,247,10.0,16.0,26,0.00,,,0.01,Rainwise IP-100,2013-05-16 15:00:00,
2013-05-16 11:05:00,69.8,36.0,29.11,SSW,202,8.0,22.0,29,0.00,,,0.01,Rainwise IP-100,2013-05-16 15:05:00,
2013-05-16 11:10:00,69.6,37.0,29.12,West,270,7.0,19.0,30,0.00,,,0.01,Rainwise IP-100,2013-05-16 15:10:00,
2013-05-16 11:15:00,70.5,38.0,29.11,West,270,7.0,13.0,30,0.00,,,0.01,Rainwise IP-100,2013-05-16 15:15:00,
2013-05-16 11:21:00,71.2,37.0,29.11,SSW,202,11.0,12.0,29,0.00,,,0.01,Rainwise IP-100,2013-05-16 15:21:00,
2013-05-16 11:26:00,70.4,35.0,29.11,WSW,247,12.0,20.0,27,0.00,,,0.01,Rainwise IP-100,2013-05-16 15:26:00,
2013-05-16 11:31:00,70.4,36.0,29.11,WNW,292,13.0,17.0,28,0.00,,,0.01,Rainwise IP-100,2013-05-16 15:31:00,
2013-05-16 11:36:00,70.6,37.0,29.11,NW,315,3.0,16.0,29,0.00,,,0.01,Rainwise IP-100,2013-05-16 15:36:00,
2013-05-16 11:41:00,70.6,37.0,29.10,North,360,7.0,20.0,29,0.00,,,0.01,Rainwise IP-100,2013-05-16 15:41:00,
2013-05-16 11:46:00,70.4,36.0,29.11,SW,225,7.0,19.0,28,0.00,,,0.01,Rainwise IP-100,2013-05-16 15:46:00,
2013-05-16 11:51:00,70.6,38.0,29.10,WSW,247,11.0,18.0,31,0.00,,,0.01,Rainwise IP-100,2013-05-16 15:51:00,
2013-05-16 11:56:00,71.1,39.0,29.10,WSW,247,12.0,15.0,32,0.00,,,0.01,Rainwise IP-100,2013-05-16 15:56:00,
2013-05-16 12:02:00,70.9,38.0,29.10,SW,225,11.0,20.0,30,0.00,,,0.01,Rainwise IP-100,2013-05-16 16:02:00,
2013-05-16 12:07:00,70.8,39.0,29.10,WSW,247,9.0,23.0,31,0.00,,,0.01,Rainwise IP-100,2013-05-16 16:07:00,
2013-05-16 12:12:00,71.2,38.0,29.09,SSW,202,4.0,15.0,30,0.00,,,0.01,Rainwise IP-100,2013-05-16 16:12:00,
2013-05-16 12:17:00,71.6,38.0,29.09,West,270,7.0,16.0,30,0.00,,,0.01,Rainwise IP-100,2013-05-16 16:17:00,
2013-05-16 12:22:00,71.6,38.0,29.09,SSW,202,11.0,28.0,30,0.00,,,0.01,Rainwise IP-100,2013-05-16 16:22:00,
2013-05-16 12:27:00,71.4,38.0,29.10,WNW,292,6.0,20.0,30,0.00,,,0.01,Rainwise IP-100,2013-05-16 16:27:00,
2013-05-16 12:32:00,71.8,39.0,29.09,SW,225,10.0,17.0,31,0.00,,,0.01,Rainwise IP-100,2013-05-16 16:32:00,
2013-05-16 12:38:00,71.8,38.0,29.09,WSW,247,9.0,16.0,30,0.00,,,0.01,Rainwise IP-100,2013-05-16 16:38:00,
2013-05-16 12:43:00,71.9,40.0,29.09,WSW,247,9.0,16.0,32,0.00,,,0.01,Rainwise IP-100,2013-05-16 16:43:00,
2013-05-16 12:48:00,71.6,40.0,29.09,WSW,247,2.0,25.0,32,0.00,,,0.01,Rainwise IP-100,2013-05-16 16:48:00,
2013-05-16 12:53:00,72.0,41.0,29.09,SW,225,10.0,20.0,33,0.00,,,0.01,Rainwise IP-100,2013-05-16 16:53:00,
2013-05-16 12:58:00,72.4,41.0,29.09,SW,225,10.0,17.0,32,0.00,,,0.01,Rainwise IP-100,2013-05-16 16:58:00,
2013-05-16 13:03:00,72.9,40.0,29.09,NW,315,7.0,12.0,30,0.00,,,0.01,Rainwise IP-100,2013-05-16 17:03:00,
2013-05-16 13:08:00,72.7,39.0,29.09,WSW,247,10.0,15.0,30,0.00,,,0.01,Rainwise IP-100,2013-05-16 17:08:00,
2013-05-16 13:13:00,72.6,41.0,29.09,WNW,292,7.0,22.0,32,0.00,,,0.01,Rainwise IP-100,2013-05-16 17:13:00,
2013-05-16 13:18:00,73.2,39.0,29.09,WNW,292,7.0,15.0,29,0.00,,,0.01,Rainwise IP-100,2013-05-16 17:18:00,
2013-05-16 13:24:00,72.9,40.0,29.09,WSW,247,6.0,15.0,30,0.00,,,0.01,Rainwise IP-100,2013-05-16 17:24:00,
2013-05-16 13:29:00,73.2,43.0,29.09,WSW,247,6.0,19.0,34,0.00,,,0.01,Rainwise IP-100,2013-05-16 17:29:00,
2013-05-16 13:34:00,72.8,38.0,29.09,SW,225,16.0,21.0,28,0.00,,,0.01,Rainwise IP-100,2013-05-16 17:34:00,
2013-05-16 13:39:00,71.7,36.0,29.09,WSW,247,13.0,21.0,27,0.00,,,0.01,Rainwise IP-100,2013-05-16 17:39:00,
2013-05-16 13:44:00,71.5,38.0,29.09,NW,315,7.0,20.0,30,0.00,,,0.01,Rainwise IP-100,2013-05-16 17:44:00,
2013-05-16 13:49:00,72.9,40.0,29.08,West,270,7.0,15.0,31,0.00,,,0.01,Rainwise IP-100,2013-05-16 17:49:00,
2013-05-16 13:54:00,72.3,40.0,29.08,West,270,10.0,21.0,31,0.00,,,0.01,Rainwise IP-100,2013-05-16 17:54:00,
2013-05-16 14:00:00,72.9,39.0,29.08,West,270,15.0,22.0,29,0.00,,,0.01,Rainwise IP-100,2013-05-16 18:00:00,
2013-05-16 14:05:00,72.5,38.0,29.08,West,270,14.0,22.0,29,0.00,,,0.01,Rainwise IP-100,2013-05-16 18:05:00,
2013-05-16 14:10:00,72.7,38.0,29.08,SE,135,6.0,25.0,29,0.00,,,0.01,Rainwise IP-100,2013-05-16 18:10:00,
2013-05-16 14:15:00,73.8,40.0,29.08,West,270,12.0,23.0,30,0.00,,,0.01,Rainwise IP-100,2013-05-16 18:15:00,
2013-05-16 14:20:00,72.3,38.0,29.09,WSW,247,7.0,25.0,29,0.00,,,0.01,Rainwise IP-100,2013-05-16 18:20:00,
2013-05-16 14:25:00,72.5,39.0,29.08,SW,225,13.0,20.0,30,0.00,,,0.01,Rainwise IP-100,2013-05-16 18:25:00,
2013-05-16 14:30:00,73.7,39.0,29.08,WSW,247,10.0,17.0,29,0.00,,,0.01,Rainwise IP-100,2013-05-16 18:30:00,
2013-05-16 14:35:00,74.4,40.0,29.09,SW,225,16.0,16.0,29,0.00,,,0.01,Rainwise IP-100,2013-05-16 18:35:00,
2013-05-16 14:41:00,73.9,39.0,29.09,NW,315,9.0,23.0,28,0.00,,,0.01,Rainwise IP-100,2013-05-16 18:41:00,
2013-05-16 14:46:00,74.1,39.0,29.08,SW,225,6.0,19.0,28,0.00,,,0.01,Rainwise IP-100,2013-05-16 18:46:00,
2013-05-16 14:51:00,73.1,37.0,29.08,West,270,10.0,19.0,27,0.00,,,0.01,Rainwise IP-100,2013-05-16 18:51:00,
2013-05-16 14:56:00,73.0,37.0,29.08,WNW,292,12.0,13.0,27,0.00,,,0.01,Rainwise IP-100,2013-05-16 18:56:00,
2013-05-16 15:01:00,73.7,38.0,29.08,WNW,292,6.0,17.0,27,0.00,,,0.01,Rainwise IP-100,2013-05-16 19:01:00,
2013-05-16 15:06:00,74.0,39.0,29.08,WSW,247,15.0,19.0,28,0.00,,,0.01,Rainwise IP-100,2013-05-16 19:06:00,
2013-05-16 15:11:00,73.5,37.0,29.08,NW,315,8.0,26.0,26,0.00,,,0.01,Rainwise IP-100,2013-05-16 19:11:00,
2013-05-16 15:17:00,73.9,38.0,29.08,SW,225,6.0,16.0,27,0.00,,,0.01,Rainwise IP-100,2013-05-16 19:17:00,
2013-05-16 15:22:00,74.5,38.0,29.08,WSW,247,7.0,20.0,27,0.00,,,0.01,Rainwise IP-100,2013-05-16 19:22:00,
2013-05-16 15:27:00,73.8,38.0,29.08,SW,225,18.0,21.0,27,0.00,,,0.01,Rainwise IP-100,2013-05-16 19:27:00,
2013-05-16 15:32:00,73.8,39.0,29.08,WSW,247,9.0,18.0,28,0.00,,,0.01,Rainwise IP-100,2013-05-16 19:32:00,
2013-05-16 15:37:00,73.8,38.0,29.08,WNW,292,15.0,17.0,27,0.00,,,0.01,Rainwise IP-100,2013-05-16 19:37:00,
2013-05-16 15:42:00,73.9,38.0,29.07,WSW,247,9.0,20.0,27,0.00,,,0.01,Rainwise IP-100,2013-05-16 19:42:00,
2013-05-16 15:47:00,73.9,38.0,29.08,WSW,247,5.0,14.0,27,0.00,,,0.01,Rainwise IP-100,2013-05-16 19:47:00,
2013-05-16 15:52:00,73.6,39.0,29.07,SW,225,10.0,15.0,29,0.00,,,0.01,Rainwise IP-100,2013-05-16 19:52:00,
2013-05-16 15:58:00,74.4,40.0,29.07,WSW,247,10.0,17.0,29,0.00,,,0.01,Rainwise IP-100,2013-05-16 19:58:00,
2013-05-16 16:03:00,73.8,38.0,29.08,WSW,247,13.0,25.0,27,0.00,,,0.01,Rainwise IP-100,2013-05-16 20:03:00,
2013-05-16 16:08:00,73.8,38.0,29.07,WSW,247,7.0,20.0,27,0.00,,,0.01,Rainwise IP-100,2013-05-16 20:08:00,
2013-05-16 16:13:00,74.2,41.0,29.07,NW,315,3.0,18.0,30,0.00,,,0.01,Rainwise IP-100,2013-05-16 20:13:00,
2013-05-16 16:18:00,74.2,37.0,29.08,WNW,292,19.0,26.0,26,0.00,,,0.01,Rainwise IP-100,2013-05-16 20:18:00,
2013-05-16 16:23:00,74.8,38.0,29.08,SW,225,10.0,24.0,26,0.00,,,0.01,Rainwise IP-100,2013-05-16 20:23:00,
2013-05-16 16:28:00,74.9,36.0,29.07,WNW,292,24.0,24.0,24,0.00,,,0.01,Rainwise IP-100,2013-05-16 20:28:00,
2013-05-16 16:34:00,74.1,37.0,29.07,NW,315,11.0,34.0,26,0.00,,,0.01,Rainwise IP-100,2013-05-16 20:34:00,
2013-05-16 16:39:00,73.2,37.0,29.08,NW,315,12.0,24.0,27,0.00,,,0.01,Rainwise IP-100,2013-05-16 20:39:00,
2013-05-16 16:44:00,73.8,39.0,29.07,South,180,7.0,20.0,28,0.00,,,0.01,Rainwise IP-100,2013-05-16 20:44:00,
2013-05-16 16:49:00,74.7,37.0,29.07,SW,225,15.0,19.0,25,0.00,,,0.01,Rainwise IP-100,2013-05-16 20:49:00,
2013-05-16 16:54:00,74.5,37.0,29.07,SW,225,6.0,25.0,25,0.00,,,0.01,Rainwise IP-100,2013-05-16 20:54:00,
2013-05-16 16:59:00,74.6,37.0,29.07,SW,225,12.0,20.0,25,0.00,,,0.01,Rainwise IP-100,2013-05-16 20:59:00,
2013-05-16 17:04:00,74.9,36.0,29.08,WNW,292,8.0,22.0,24,0.00,,,0.01,Rainwise IP-100,2013-05-16 21:04:00,
2013-05-16 17:10:00,74.7,36.0,29.07,SW,225,19.0,29.0,24,0.00,,,0.01,Rainwise IP-100,2013-05-16 21:10:00,
2013-05-16 17:15:00,74.6,38.0,29.08,West,270,12.0,19.0,26,0.00,,,0.01,Rainwise IP-100,2013-05-16 21:15:00,
2013-05-16 17:20:00,74.7,37.0,29.08,SW,225,7.0,16.0,25,0.00,,,0.01,Rainwise IP-100,2013-05-16 21:20:00,
2013-05-16 17:25:00,74.7,37.0,29.07,WSW,247,18.0,18.0,25,0.00,,,0.01,Rainwise IP-100,2013-05-16 21:25:00,
2013-05-16 17:30:00,74.3,37.0,29.08,WSW,247,11.0,23.0,25,0.00,,,0.01,Rainwise IP-100,2013-05-16 21:30:00,
2013-05-16 17:35:00,74.3,37.0,29.08,SW,225,12.0,22.0,25,0.00,,,0.01,Rainwise IP-100,2013-05-16 21:35:00,
2013-05-16 17:40:00,74.5,37.0,29.08,WSW,247,6.0,23.0,25,0.00,,,0.01,Rainwise IP-100,2013-05-16 21:40:00,
2013-05-16 17:45:00,74.1,35.0,29.08,West,270,13.0,22.0,24,0.00,,,0.01,Rainwise IP-100,2013-05-16 21:45:00,
2013-05-16 17:51:00,74.1,36.0,29.08,SSW,202,7.0,16.0,25,0.00,,,0.01,Rainwise IP-100,2013-05-16 21:51:00,
2013-05-16 17:56:00,73.9,37.0,29.08,West,270,9.0,23.0,26,0.00,,,0.01,Rainwise IP-100,2013-05-16 21:56:00,
2013-05-16 18:01:00,73.7,37.0,29.08,WSW,247,13.0,21.0,26,0.00,,,0.01,Rainwise IP-100,2013-05-16 22:01:00,
2013-05-16 18:06:00,73.6,36.0,29.08,WSW,247,6.0,19.0,25,0.00,,,0.01,Rainwise IP-100,2013-05-16 22:06:00,
2013-05-16 18:11:00,73.6,36.0,29.08,WNW,292,10.0,22.0,25,0.00,,,0.01,Rainwise IP-100,2013-05-16 22:11:00,
2013-05-16 18:16:00,73.4,37.0,29.08,SW,225,6.0,20.0,26,0.00,,,0.01,Rainwise IP-100,2013-05-16 22:16:00,
2013-05-16 18:21:00,73.4,36.0,29.08,WSW,247,5.0,14.0,25,0.00,,,0.01,Rainwise IP-100,2013-05-16 22:21:00,
2013-05-16 18:26:00,73.4,35.0,29.08,SW,225,2.0,19.0,24,0.00,,,0.01,Rainwise IP-100,2013-05-16 22:26:00,
2013-05-16 18:32:00,73.5,35.0,29.08,WSW,247,10.0,12.0,24,0.00,,,0.01,Rainwise IP-100,2013-05-16 22:32:00,
2013-05-16 18:35:00,73.3,33.0,29.08,West,270,9.0,22.0,23,0.00,,,0.01,Rainwise IP-100,2013-05-16 22:35:00,
2013-05-16 18:40:00,73.3,37.0,29.08,West,270,8.0,15.0,26,0.00,,,0.01,Rainwise IP-100,2013-05-16 22:40:00,
2013-05-16 18:46:00,72.6,33.0,29.09,West,270,7.0,19.0,24,0.00,,,0.01,Rainwise IP-100,2013-05-16 22:46:00,
2013-05-16 18:51:00,72.8,33.0,29.09,South,180,4.0,13.0,24,0.00,,,0.01,Rainwise IP-100,2013-05-16 22:51:00,
2013-05-16 18:56:00,72.4,33.0,29.09,SW,225,13.0,21.0,24,0.00,,,0.01,Rainwise IP-100,2013-05-16 22:56:00,
2013-05-16 19:01:00,72.2,32.0,29.09,West,270,5.0,18.0,23,0.00,,,0.01,Rainwise IP-100,2013-05-16 23:01:00,
2013-05-16 19:06:00,72.1,33.0,29.09,SW,225,12.0,22.0,24,0.06,,,0.02,Rainwise IP-100,2013-05-16 23:06:00,
2013-05-16 19:11:00,71.9,33.0,29.09,SSW,202,10.0,16.0,24,0.06,,,0.02,Rainwise IP-100,2013-05-16 23:11:00,
2013-05-16 19:16:00,71.6,32.0,29.10,WSW,247,7.0,16.0,23,0.00,,,0.02,Rainwise IP-100,2013-05-16 23:16:00,
2013-05-16 19:22:00,71.3,31.0,29.10,West,270,7.0,17.0,22,0.00,,,0.02,Rainwise IP-100,2013-05-16 23:22:00,
2013-05-16 19:27:00,70.8,32.0,29.10,West,270,1.0,12.0,24,0.00,,,0.02,Rainwise IP-100,2013-05-16 23:27:00,
2013-05-16 19:32:00,69.7,32.0,29.11,WNW,292,2.0,7.0,25,0.00,,,0.02,Rainwise IP-100,2013-05-16 23:32:00,
2013-05-16 19:37:00,68.8,33.0,29.11,NW,315,8.0,9.0,27,0.00,,,0.02,Rainwise IP-100,2013-05-16 23:37:00,
2013-05-16 19:42:00,68.6,31.0,29.11,WNW,292,10.0,15.0,24,0.00,,,0.02,Rainwise IP-100,2013-05-16 23:42:00,
2013-05-16 19:47:00,69.2,31.0,29.11,SW,225,8.0,14.0,23,0.00,,,0.02,Rainwise IP-100,2013-05-16 23:47:00,
2013-05-16 19:52:00,68.9,31.0,29.11,SW,225,6.0,12.0,24,0.00,,,0.02,Rainwise IP-100,2013-05-16 23:52:00,
2013-05-16 19:57:00,68.9,31.0,29.12,WSW,247,7.0,13.0,24,0.00,,,0.02,Rainwise IP-100,2013-05-16 23:57:00,
2013-05-16 20:03:00,68.8,31.0,29.12,West,270,9.0,16.0,24,0.00,,,0.02,Rainwise IP-100,2013-05-17 00:03:00,
2013-05-16 20:08:00,68.4,31.0,29.12,SW,225,6.0,15.0,24,0.00,,,0.02,Rainwise IP-100,2013-05-17 00:08:00,
2013-05-16 20:13:00,67.7,29.0,29.13,WNW,292,5.0,9.0,24,0.00,,,0.02,Rainwise IP-100,2013-05-17 00:13:00,
2013-05-16 20:18:00,67.8,31.0,29.13,SW,225,9.0,13.0,24,0.00,,,0.02,Rainwise IP-100,2013-05-17 00:18:00,
2013-05-16 20:23:00,67.6,29.0,29.13,WNW,292,4.0,13.0,24,0.00,,,0.02,Rainwise IP-100,2013-05-17 00:23:00,
2013-05-16 20:28:00,67.1,29.0,29.14,WSW,247,6.0,12.0,24,0.00,,,0.02,Rainwise IP-100,2013-05-17 00:28:00,
2013-05-16 20:30:00,67.2,29.0,29.14,SW,225,6.0,13.0,24,0.00,,,0.02,Rainwise IP-100,2013-05-17 00:30:00,
2013-05-16 20:35:00,66.9,31.0,29.14,NW,315,3.0,10.0,25,0.00,,,0.02,Rainwise IP-100,2013-05-17 00:35:00,
2013-05-16 20:40:00,66.1,31.0,29.15,NW,315,0.0,6.0,26,0.00,,,0.02,Rainwise IP-100,2013-05-17 00:40:00,
2013-05-16 20:46:00,64.3,32.0,29.15,SW,225,4.0,5.0,30,0.00,,,0.02,Rainwise IP-100,2013-05-17 00:46:00,
2013-05-16 20:51:00,63.2,29.0,29.15,NW,315,6.0,7.0,28,0.00,,,0.02,Rainwise IP-100,2013-05-17 00:51:00,
2013-05-16 20:56:00,64.6,31.0,29.15,West,270,7.0,13.0,28,0.00,,,0.02,Rainwise IP-100,2013-05-17 00:56:00,
2013-05-16 21:01:00,64.4,32.0,29.15,WSW,247,3.0,7.0,29,0.00,,,0.02,Rainwise IP-100,2013-05-17 01:01:00,
2013-05-16 21:06:00,63.9,31.0,29.15,West,270,4.0,7.0,29,0.00,,,0.02,Rainwise IP-100,2013-05-17 01:06:00,
2013-05-16 21:11:00,63.2,31.0,29.15,WSW,247,6.0,7.0,30,0.00,,,0.02,Rainwise IP-100,2013-05-17 01:11:00,
2013-05-16 21:16:00,63.0,31.0,29.15,WSW,247,6.0,7.0,29,0.00,,,0.02,Rainwise IP-100,2013-05-17 01:16:00,
2013-05-16 21:22:00,63.9,32.0,29.15,WSW,247,5.0,12.0,30,0.00,,,0.02,Rainwise IP-100,2013-05-17 01:22:00,
2013-05-16 21:27:00,63.7,32.0,29.15,West,270,4.0,9.0,30,0.00,,,0.02,Rainwise IP-100,2013-05-17 01:27:00,
2013-05-16 21:32:00,63.7,32.0,29.15,WSW,247,4.0,10.0,30,0.00,,,0.02,Rainwise IP-100,2013-05-17 01:32:00,
2013-05-16 21:37:00,63.1,31.0,29.15,NW,315,6.0,6.0,30,0.00,,,0.02,Rainwise IP-100,2013-05-17 01:37:00,
2013-05-16 21:42:00,62.6,32.0,29.16,ENE,67,4.0,12.0,31,0.00,,,0.02,Rainwise IP-100,2013-05-17 01:42:00,
2013-05-16 21:47:00,62.3,36.0,29.17,NNW,337,2.0,10.0,36,0.00,,,0.02,Rainwise IP-100,2013-05-17 01:47:00,
2013-05-16 21:52:00,61.5,36.0,29.17,North,360,1.0,10.0,39,0.00,,,0.02,Rainwise IP-100,2013-05-17 01:52:00,
2013-05-16 21:57:00,60.7,37.0,29.17,NNW,337,6.0,9.0,42,0.00,,,0.02,Rainwise IP-100,2013-05-17 01:57:00,
2013-05-16 22:03:00,59.9,39.0,29.17,NW,315,6.0,10.0,46,0.00,,,0.02,Rainwise IP-100,2013-05-17 02:03:00,
2013-05-16 22:08:00,59.4,38.0,29.17,NNW,337,3.0,9.0,46,0.00,,,0.02,Rainwise IP-100,2013-05-17 02:08:00,
2013-05-16 22:13:00,59.1,39.0,29.18,NW,315,0.0,9.0,48,0.00,,,0.02,Rainwise IP-100,2013-05-17 02:13:00,
2013-05-16 22:18:00,58.6,40.0,29.18,North,360,2.0,10.0,49,0.00,,,0.02,Rainwise IP-100,2013-05-17 02:18:00,
2013-05-16 22:23:00,58.6,40.0,29.18,West,270,3.0,7.0,49,0.00,,,0.02,Rainwise IP-100,2013-05-17 02:23:00,
2013-05-16 22:28:00,58.4,40.0,29.18,NW,315,6.0,7.0,50,0.00,,,0.02,Rainwise IP-100,2013-05-17 02:28:00,
2013-05-16 22:33:00,58.1,40.0,29.18,NW,315,2.0,8.0,51,0.00,,,0.02,Rainwise IP-100,2013-05-17 02:33:00,
2013-05-16 22:39:00,57.7,40.0,29.19,WNW,292,5.0,6.0,52,0.00,,,0.02,Rainwise IP-100,2013-05-17 02:39:00,
2013-05-16 22:44:00,56.9,40.0,29.18,West,270,5.0,9.0,54,0.00,,,0.02,Rainwise IP-100,2013-05-17 02:44:00,
2013-05-16 22:49:00,56.6,41.0,29.19,WNW,292,6.0,7.0,56,0.00,,,0.02,Rainwise IP-100,2013-05-17 02:49:00,
2013-05-16 22:54:00,56.1,40.0,29.19,North,360,3.0,7.0,56,0.00,,,0.02,Rainwise IP-100,2013-05-17 02:54:00,
2013-05-16 22:59:00,55.7,40.0,29.19,NE,45,2.0,7.0,56,0.00,,,0.02,Rainwise IP-100,2013-05-17 02:59:00,
2013-05-16 23:04:00,55.0,41.0,29.19,NNE,22,5.0,5.0,59,0.00,,,0.02,Rainwise IP-100,2013-05-17 03:04:00,
2013-05-16 23:09:00,54.7,42.0,29.19,NNW,337,4.0,10.0,63,0.00,,,0.02,Rainwise IP-100,2013-05-17 03:09:00,
2013-05-16 23:14:00,54.7,42.0,29.19,NNW,337,0.0,8.0,63,0.00,,,0.02,Rainwise IP-100,2013-05-17 03:14:00,
2013-05-16 23:20:00,54.4,42.0,29.19,NNW,337,4.0,7.0,63,0.00,,,0.02,Rainwise IP-100,2013-05-17 03:20:00,
2013-05-16 23:25:00,53.9,42.0,29.20,NNW,337,4.0,7.0,65,0.00,,,0.02,Rainwise IP-100,2013-05-17 03:25:00,
2013-05-16 23:30:00,53.7,42.0,29.20,NNW,337,5.0,7.0,66,0.00,,,0.02,Rainwise IP-100,2013-05-17 03:30:00,
2013-05-16 23:35:00,53.5,43.0,29.20,NNW,337,5.0,7.0,68,0.00,,,0.02,Rainwise IP-100,2013-05-17 03:35:00,
2013-05-16 23:40:00,53.2,41.0,29.20,NNW,337,5.0,6.0,66,0.00,,,0.02,Rainwise IP-100,2013-05-17 03:40:00,
2013-05-16 23:45:00,52.7,42.0,29.20,NW,315,4.0,6.0,68,0.00,,,0.02,Rainwise IP-100,2013-05-17 03:45:00,
2013-05-16 23:50:00,52.2,42.0,29.20,NW,315,2.0,4.0,70,0.00,,,0.02,Rainwise IP-100,2013-05-17 03:50:00,
2013-05-16 23:56:00,51.7,42.0,29.20,NNW,337,1.0,4.0,69,0.00,,,0.02,Rainwise IP-100,2013-05-17 03:56:00,